| time (UTC) | temp F | wind direction | speed MPH | gust MPH | rain 1hr in | rain 24hr in | rain mn in | humidity % | barometer mb |
| 20260505234555 | 75 | 350 | 9.0 | 15.0 | 0.00 | 0.00 | 0.00 | 66 | 1003.3 |
| 20260505233051 | 76 | 333 | 9.0 | 16.0 | 0.00 | 0.00 | 0.00 | 65 | 1003.2 |
| 20260505231551 | 77 | 360 | 8.0 | 16.0 | 0.00 | 0.00 | 0.00 | 64 | 1003.2 |
| 20260505230043 | 79 | 27 | 8.0 | 15.0 | 0.00 | 0.00 | 0.00 | 63 | 1002.8 |
| 20260505224543 | 79 | 297 | 8.0 | 14.0 | 0.00 | 0.00 | 0.00 | 63 | 1002.9 |
| 20260505223050 | 81 | 15 | 6.0 | 18.0 | 0.00 | 0.00 | 0.00 | 62 | 1002.4 |
| 20260505221540 | 83 | 320 | 7.0 | 13.0 | 0.00 | 0.00 | 0.00 | 61 | 1002.3 |
| 20260505220042 | 84 | 16 | 9.0 | 16.0 | 0.00 | 0.00 | 0.00 | 52 | 1002.2 |
| 20260505214547 | 84 | 360 | 9.0 | 13.0 | 0.00 | 0.00 | 0.00 | 52 | 1002.1 |
| 20260505213036 | 85 | 334 | 8.0 | 17.0 | 0.00 | 0.00 | 0.00 | 50 | 1002.3 |
| 20260505211534 | 87 | 360 | 9.0 | 18.0 | 0.00 | 0.00 | 0.00 | 49 | 1002.1 |
| 20260505210034 | 88 | 223 | 4.0 | 10.0 | 0.00 | 0.00 | 0.00 | 55 | 1002.3 |
| 20260505204535 | 87 | 252 | 6.0 | 10.0 | 0.00 | 0.00 | 0.00 | 54 | 1002.4 |
| 20260505203032 | 87 | 285 | 6.0 | 12.0 | 0.00 | 0.00 | 0.00 | 54 | 1002.5 |
| 20260505201528 | 87 | 175 | 4.0 | 10.0 | 0.00 | 0.00 | 0.00 | 53 | 1002.6 |
| 20260505200037 | 87 | 319 | 4.0 | 11.0 | 0.00 | 0.00 | 0.00 | 55 | 1002.8 |
| 20260505194524 | 87 | 279 | 4.0 | 12.0 | 0.00 | 0.00 | 0.00 | 57 | 1003.0 |
| 20260505193022 | 87 | 230 | 3.0 | 12.0 | 0.00 | 0.00 | 0.00 | 59 | 1002.9 |
| 20260505191519 | 86 | 208 | 7.0 | 15.0 | 0.00 | 0.00 | 0.00 | 59 | 1002.9 |
| 20260505190017 | 85 | 232 | 7.0 | 16.0 | 0.00 | 0.00 | 0.00 | 61 | 1002.9 |
| 20260505184513 | 84 | 238 | 7.0 | 14.0 | 0.00 | 0.00 | 0.00 | 64 | 1003.0 |
| 20260505183012 | 83 | 198 | 4.0 | 16.0 | 0.00 | 0.00 | 0.00 | 66 | 1003.1 |
| 20260505181505 | 82 | 186 | 7.0 | 16.0 | 0.00 | 0.00 | 0.00 | 68 | 1003.2 |
| 20260505180006 | 82 | 248 | 7.0 | 15.0 | 0.00 | 0.00 | 0.00 | 68 | 1003.2 |
| 20260505174501 | 81 | 193 | 6.0 | 15.0 | 0.00 | 0.00 | 0.00 | 71 | 1003.3 |
| 20260505173003 | 81 | 197 | 5.0 | 16.0 | 0.00 | 0.00 | 0.00 | 70 | 1003.4 |
| 20260505171605 | 81 | 167 | 8.0 | 16.0 | 0.00 | 0.00 | 0.00 | 69 | 1003.3 |
| 20260505170057 | 81 | 194 | 6.0 | 14.0 | 0.00 | 0.00 | 0.00 | 71 | 1003.3 |
| 20260505164616 | 80 | 212 | 6.0 | 19.0 | 0.00 | 0.00 | 0.00 | 71 | 1003.3 |
| 20260505163101 | 80 | 160 | 9.0 | 22.0 | 0.00 | 0.00 | 0.00 | 73 | 1003.3 |
| 20260505161550 | 78 | 178 | 7.0 | 19.0 | 0.00 | 0.00 | 0.00 | 74 | 1003.2 |
| 20260505153041 | 76 | 200 | 7.0 | 15.0 | 0.00 | 0.00 | 0.00 | 78 | 1002.9 |
| 20260505151537 | 74 | 205 | 8.0 | 16.0 | 0.00 | 0.00 | 0.00 | 80 | 1002.9 |
| 20260505124535 | 70 | 168 | 8.0 | 17.0 | 0.00 | 0.00 | 0.00 | 86 | 1002.7 |
| 20260505123029 | 70 | 137 | 7.0 | 14.0 | 0.00 | 0.00 | 0.00 | 86 | 1002.4 |
| 20260505121528 | 70 | 177 | 8.0 | 18.0 | 0.00 | 0.00 | 0.00 | 86 | 1002.2 |
| 20260505120027 | 69 | 171 | 8.0 | 15.0 | 0.00 | 0.00 | 0.00 | 86 | 1002.2 |
| 20260505114527 | 69 | 170 | 7.0 | 14.0 | 0.00 | 0.00 | 0.00 | 87 | 1002.0 |
| 20260505113027 | 69 | 175 | 5.0 | 12.0 | 0.00 | 0.00 | 0.00 | 87 | 1002.0 |
| 20260505111534 | 69 | 165 | 5.0 | 15.0 | 0.00 | 0.00 | 0.00 | 87 | 1001.9 |
| 20260505101518 | 69 | 169 | 6.0 | 14.0 | 0.00 | 0.00 | 0.00 | 87 | 1001.9 |
| 20260505100023 | 69 | 165 | 5.0 | 14.0 | 0.00 | 0.00 | 0.00 | 87 | 1001.9 |
| 20260505094517 | 69 | 222 | 9.0 | 21.0 | 0.00 | 0.00 | 0.00 | 86 | 1001.9 |
| 20260505093014 | 69 | 165 | 9.0 | 16.0 | 0.00 | 0.00 | 0.00 | 86 | 1001.8 |
| 20260505091510 | 69 | 157 | 7.0 | 17.0 | 0.00 | 0.00 | 0.00 | 85 | 1002.0 |
| 20260505090007 | 70 | 145 | 5.0 | 15.0 | 0.00 | 0.00 | 0.00 | 84 | 1002.4 |
| 20260505084506 | 70 | 169 | 7.0 | 15.0 | 0.00 | 0.00 | 0.00 | 84 | 1002.5 |
| 20260505083012 | 70 | 146 | 9.0 | 15.0 | 0.00 | 0.00 | 0.00 | 83 | 1002.5 |
| 20260505081507 | 70 | 187 | 7.0 | 16.0 | 0.00 | 0.00 | 0.00 | 82 | 1002.5 |
| 20260505080001 | 71 | 171 | 9.0 | 19.0 | 0.00 | 0.00 | 0.00 | 81 | 1002.4 |
| 20260505074600 | 71 | 167 | 8.0 | 17.0 | 0.00 | 0.00 | 0.00 | 80 | 1002.5 |
| 20260505073057 | 71 | 141 | 9.0 | 19.0 | 0.00 | 0.00 | 0.00 | 79 | 1002.9 |
| 20260505071556 | 71 | 157 | 9.0 | 18.0 | 0.00 | 0.00 | 0.00 | 79 | 1003.2 |
| 20260505070056 | 72 | 184 | 10.0 | 24.0 | 0.00 | 0.00 | 0.00 | 78 | 1003.3 |
| 20260505064548 | 72 | 171 | 8.0 | 16.0 | 0.00 | 0.00 | 0.00 | 78 | 1003.6 |
| 20260505063047 | 72 | 212 | 8.0 | 17.0 | 0.00 | 0.00 | 0.00 | 77 | 1003.8 |
| 20260505061543 | 72 | 144 | 9.0 | 15.0 | 0.00 | 0.00 | 0.00 | 77 | 1003.8 |
| 20260505060041 | 73 | 159 | 9.0 | 19.0 | 0.00 | 0.00 | 0.00 | 76 | 1003.8 |
| 20260505054550 | 73 | 177 | 7.0 | 19.0 | 0.00 | 0.00 | 0.00 | 76 | 1003.8 |
| 20260505053051 | 74 | 167 | 9.0 | 21.0 | 0.00 | 0.00 | 0.00 | 75 | 1003.6 |
| 20260505051538 | 74 | 149 | 7.0 | 24.0 | 0.00 | 0.00 | 0.00 | 74 | 1003.6 |
| 20260505041527 | 75 | 217 | 9.0 | 22.0 | 0.00 | 0.00 | 0.00 | 73 | 1004.0 |
| 20260505040035 | 75 | 182 | 11.0 | 22.0 | 0.00 | 0.00 | 0.00 | 72 | 1004.1 |
| 20260505034526 | 75 | 158 | 8.0 | 22.0 | 0.00 | 0.00 | 0.00 | 72 | 1003.9 |
| 20260505033030 | 75 | 169 | 11.0 | 19.0 | 0.00 | 0.00 | 0.00 | 71 | 1003.8 |
| 20260505031525 | 75 | 131 | 8.0 | 18.0 | 0.00 | 0.00 | 0.00 | 71 | 1003.9 |
| 20260505030027 | 75 | 192 | 8.0 | 17.0 | 0.00 | 0.00 | 0.00 | 71 | 1003.7 |
| 20260505024523 | 75 | 155 | 7.0 | 17.0 | 0.00 | 0.00 | 0.00 | 71 | 1004.0 |
| 20260505023023 | 76 | 161 | 4.0 | 17.0 | 0.00 | 0.00 | 0.00 | 71 | 1003.9 |
| 20260505021526 | 76 | 180 | 5.0 | 14.0 | 0.00 | 0.00 | 0.00 | 71 | 1003.8 |
| 20260505020021 | 76 | 128 | 3.0 | 15.0 | 0.00 | 0.00 | 0.00 | 70 | 1003.6 |
| 20260505014520 | 76 | 161 | 7.0 | 13.0 | 0.00 | 0.00 | 0.00 | 70 | 1003.8 |
| 20260505013020 | 76 | 170 | 6.0 | 13.0 | 0.00 | 0.00 | 0.00 | 69 | 1003.8 |
| 20260505011520 | 77 | 165 | 6.0 | 20.0 | 0.00 | 0.00 | 0.00 | 68 | 1003.7 |
| 20260505010017 | 77 | 111 | 7.0 | 16.0 | 0.00 | 0.00 | 0.00 | 68 | 1003.8 |
| 20260505004516 | 77 | 166 | 8.0 | 18.0 | 0.00 | 0.00 | 0.00 | 67 | 1003.9 |
| 20260505003018 | 78 | 154 | 8.0 | 16.0 | 0.00 | 0.00 | 0.00 | 66 | 1003.8 |
| 20260505001514 | 78 | 155 | 7.0 | 17.0 | 0.00 | 0.00 | 0.00 | 65 | 1003.9 |
| 20260505000012 | 79 | 155 | 9.0 | 19.0 | 0.00 | 0.00 | 0.00 | 64 | 1004.0 |